| time (UTC) | temp C | wind direction | speed KPH | gust KPH | rain 1hr cm | rain 24hr cm | rain mn cm | humidity % | barometer mb |
| 20260505035342 | 22 | 82 | 3.2 | 8.0 | 0.00 | 2.87 | 2.87 | 87 | 1014.5 |
| 20260505034443 | 22 | 70 | 3.2 | 9.7 | 0.00 | 2.87 | 2.87 | 87 | 1014.8 |
| 20260505032642 | 22 | 70 | 3.2 | 11.3 | 0.00 | 2.87 | 2.87 | 87 | 1014.6 |
| 20260505030843 | 22 | 78 | 3.2 | 14.5 | 0.00 | 2.87 | 2.87 | 88 | 1014.6 |
| 20260505025943 | 22 | 71 | 1.6 | 8.0 | 0.00 | 2.87 | 2.87 | 90 | 1014.4 |
| 20260505024142 | 22 | 86 | 1.6 | 6.4 | 0.00 | 2.87 | 2.87 | 91 | 1014.4 |
| 20260505023241 | 22 | 86 | 1.6 | 8.0 | 0.03 | 2.87 | 2.87 | 92 | 1014.5 |
| 20260505021441 | 22 | 0 | 0.0 | 3.2 | 0.03 | 2.87 | 2.87 | 93 | 1014.0 |
| 20260505020541 | 22 | 0 | 0.0 | 3.2 | 0.05 | 2.87 | 2.87 | 93 | 1013.9 |
| 20260505014742 | 22 | 0 | 0.0 | 1.6 | 0.23 | 2.87 | 2.87 | 93 | 1013.7 |
| 20260505013842 | 22 | 0 | 0.0 | 1.6 | 0.20 | 2.84 | 2.84 | 93 | 1013.8 |
| 20260505012942 | 22 | 0 | 0.0 | 1.6 | 0.23 | 2.84 | 2.84 | 93 | 1014.1 |
| 20260505012042 | 22 | 0 | 0.0 | 0.0 | 0.33 | 2.84 | 2.84 | 94 | 1014.0 |
| 20260505011142 | 22 | 0 | 0.0 | 1.6 | 0.48 | 2.84 | 2.84 | 93 | 1013.7 |
| 20260505010242 | 22 | 0 | 0.0 | 0.0 | 0.71 | 2.79 | 2.82 | 93 | 1013.6 |
| 20260505003542 | 22 | 0 | 0.0 | 1.6 | 1.63 | 2.62 | 2.62 | 92 | 1013.7 |
| 20260505002642 | 22 | 0 | 0.0 | 3.2 | 1.80 | 2.57 | 2.59 | 92 | 1013.3 |
| 20260505000842 | 22 | 137 | 1.6 | 6.4 | 2.29 | 2.29 | 2.29 | 91 | 1013.3 |
| 20260504235942 | 22 | 37 | 1.6 | 6.4 | 1.96 | 1.96 | 1.98 | 92 | 1013.1 |
| 20260504235042 | 22 | 0 | 0.0 | 1.6 | 1.63 | 1.63 | 1.68 | 91 | 1012.9 |
| 20260504233242 | 23 | 23 | 1.6 | 3.2 | 0.94 | 0.94 | 0.97 | 87 | 1012.8 |
| 20260504232342 | 25 | 40 | 3.2 | 6.4 | 0.58 | 0.58 | 0.64 | 82 | 1012.7 |
| 20260504231442 | 26 | 165 | 1.6 | 6.4 | 0.00 | 0.00 | 0.00 | 71 | 1012.5 |
| 20260504230541 | 27 | 237 | 3.2 | 14.5 | 0.00 | 0.00 | 0.00 | 72 | 1012.3 |
| 20260504225642 | 27 | 105 | 1.6 | 8.0 | 0.00 | 0.00 | 0.00 | 67 | 1012.3 |
| 20260504224741 | 27 | 99 | 3.2 | 8.0 | 0.00 | 0.00 | 0.00 | 64 | 1012.2 |
| 20260504223841 | 28 | 111 | 1.6 | 8.0 | 0.00 | 0.00 | 0.00 | 64 | 1012.2 |
| 20260504222942 | 28 | 101 | 1.6 | 6.4 | 0.00 | 0.00 | 0.00 | 65 | 1012.0 |
| 20260504222041 | 28 | 89 | 3.2 | 11.3 | 0.00 | 0.00 | 0.00 | 64 | 1012.1 |
| 20260504220242 | 28 | 100 | 1.6 | 14.5 | 0.00 | 0.00 | 0.00 | 63 | 1012.1 |
| 20260504215341 | 29 | 143 | 1.6 | 8.0 | 0.00 | 0.00 | 0.00 | 61 | 1012.0 |
| 20260504214442 | 30 | 79 | 3.2 | 11.3 | 0.00 | 0.00 | 0.00 | 60 | 1011.9 |
| 20260504213542 | 30 | 65 | 3.2 | 11.3 | 0.00 | 0.00 | 0.00 | 57 | 1011.9 |
| 20260504212641 | 31 | 96 | 1.6 | 8.0 | 0.00 | 0.00 | 0.00 | 54 | 1011.9 |
| 20260504211742 | 31 | 89 | 1.6 | 4.8 | 0.00 | 0.00 | 0.00 | 54 | 1012.0 |
| 20260504210842 | 31 | 107 | 3.2 | 8.0 | 0.00 | 0.00 | 0.00 | 53 | 1012.0 |
| 20260504205941 | 31 | 68 | 4.8 | 14.5 | 0.00 | 0.00 | 0.00 | 53 | 1012.0 |
| 20260504205041 | 31 | 70 | 3.2 | 11.3 | 0.00 | 0.00 | 0.00 | 51 | 1012.1 |
| 20260504204142 | 32 | 69 | 3.2 | 6.4 | 0.00 | 0.00 | 0.00 | 53 | 1012.2 |
| 20260504203242 | 31 | 68 | 3.2 | 12.9 | 0.00 | 0.00 | 0.00 | 52 | 1012.3 |
| 20260504202341 | 31 | 87 | 3.2 | 16.1 | 0.00 | 0.00 | 0.00 | 53 | 1012.4 |
| 20260504201441 | 31 | 71 | 3.2 | 9.7 | 0.00 | 0.00 | 0.00 | 53 | 1012.4 |
| 20260504200541 | 32 | 80 | 1.6 | 8.0 | 0.00 | 0.00 | 0.00 | 52 | 1012.4 |
| 20260504195642 | 31 | 65 | 4.8 | 12.9 | 0.00 | 0.00 | 0.00 | 55 | 1012.7 |
| 20260504194742 | 31 | 67 | 4.8 | 12.9 | 0.00 | 0.00 | 0.00 | 55 | 1012.8 |
| 20260504193842 | 31 | 79 | 3.2 | 11.3 | 0.00 | 0.00 | 0.00 | 54 | 1012.8 |
| 20260504192941 | 31 | 76 | 3.2 | 9.7 | 0.00 | 0.00 | 0.00 | 53 | 1013.0 |
| 20260504192041 | 31 | 81 | 3.2 | 12.9 | 0.00 | 0.00 | 0.00 | 53 | 1013.0 |
| 20260504191141 | 31 | 72 | 3.2 | 16.1 | 0.00 | 0.00 | 0.00 | 55 | 1013.1 |
| 20260504190242 | 30 | 59 | 4.8 | 12.9 | 0.00 | 0.00 | 0.00 | 56 | 1013.3 |
| 20260504185341 | 30 | 67 | 4.8 | 14.5 | 0.00 | 0.00 | 0.00 | 57 | 1013.3 |
| 20260504184441 | 30 | 65 | 4.8 | 16.1 | 0.00 | 0.00 | 0.00 | 56 | 1013.5 |
| 20260504182641 | 30 | 71 | 4.8 | 12.9 | 0.00 | 0.00 | 0.00 | 57 | 1013.7 |
| 20260504181741 | 30 | 62 | 4.8 | 12.9 | 0.00 | 0.00 | 0.00 | 57 | 1013.7 |
| 20260504180841 | 30 | 64 | 4.8 | 14.5 | 0.00 | 0.00 | 0.00 | 57 | 1013.9 |
| 20260504175941 | 30 | 71 | 4.8 | 14.5 | 0.00 | 0.00 | 0.00 | 59 | 1013.9 |
| 20260504175041 | 28 | 71 | 6.4 | 16.1 | 0.00 | 0.00 | 0.00 | 59 | 1014.0 |
| 20260504174141 | 29 | 64 | 6.4 | 14.5 | 0.00 | 0.00 | 0.00 | 59 | 1014.1 |
| 20260504173241 | 28 | 69 | 6.4 | 20.9 | 0.00 | 0.00 | 0.00 | 61 | 1014.4 |
| 20260504172341 | 29 | 68 | 4.8 | 14.5 | 0.00 | 0.00 | 0.00 | 61 | 1014.6 |
| 20260504171441 | 28 | 70 | 6.4 | 17.7 | 0.00 | 0.00 | 0.00 | 61 | 1014.7 |
| 20260504160241 | 27 | 63 | 6.4 | 20.9 | 0.00 | 0.00 | 0.00 | 66 | 1015.4 |
| 20260504150841 | 26 | 60 | 8.0 | 19.3 | 0.00 | 0.00 | 0.00 | 69 | 1015.7 |
| 20260504140541 | 24 | 61 | 6.4 | 16.1 | 0.00 | 0.00 | 0.00 | 73 | 1015.5 |
| 20260504130241 | 22 | 62 | 6.4 | 14.5 | 0.00 | 0.00 | 0.00 | 80 | 1015.0 |
| 20260504110540 | 21 | 38 | 3.2 | 16.1 | 0.00 | 0.00 | 0.00 | 87 | 1014.0 |
| 20260504081437 | 21 | 62 | 4.8 | 11.3 | 0.00 | 0.00 | 0.00 | 86 | 1013.8 |
| 20260504080536 | 21 | 57 | 3.2 | 11.3 | 0.00 | 0.00 | 0.00 | 86 | 1013.9 |
| 20260504070236 | 21 | 68 | 4.8 | 14.5 | 0.00 | 0.00 | 0.00 | 86 | 1014.4 |
| 20260504050536 | 21 | 58 | 3.2 | 11.3 | 0.00 | 0.00 | 0.00 | 88 | 1015.3 |
| 20260504045636 | 21 | 65 | 4.8 | 12.9 | 0.00 | 0.00 | 0.00 | 87 | 1015.0 |
| 20260504044736 | 21 | 68 | 4.8 | 14.5 | 0.00 | 0.00 | 0.00 | 87 | 1014.7 |
| 20260504043837 | 21 | 57 | 3.2 | 11.3 | 0.00 | 0.00 | 0.00 | 86 | 1015.5 |
| 20260504042935 | 21 | 61 | 3.2 | 8.0 | 0.00 | 0.00 | 0.00 | 86 | 1015.5 |
| 20260504040236 | 21 | 65 | 4.8 | 11.3 | 0.00 | 0.00 | 0.00 | 86 | 1015.3 |